Location: Betz
(49.1556°N, 2.9558°E)
Time: 03:00:32
(UTC+00:00)

Cosmos 2237 Rocket - Pass Details

Date: 18 September 2019
Orbit: 833 x 852 km, 71.0° (Epoch: 22 October)

Event Time Altitude Azimuth Distance (km) Brightness Sun altitude
Rises 19:40:53 0° 330° (NNW) 3,425 6.3 -17.5°
Reaches altitude 10° 19:43:21 10° 329° (NNW) 2,487 5.5 -17.8°
Maximum altitude 19:49:03 76° 245° (WSW) 882 2.3 -18.7°
Enters shadow 19:52:48 22° 163° (SSE) 1,768 3.5 -19.2°
